Location: Nirvana
(45.0297°N, 77.2628°W)
Time: 03:47:32
(UTC-05:00)

Envisat - Pass Details

Date: 28 October 2019
Orbit: 764 x 766 km, 98.1° (Epoch: 17 November)

Event Time Altitude Azimuth Distance (km) Brightness Sun altitude
Rises 18:33:05 0° 148° (SSE) 3,220 6.0 -5.9°
Reaches altitude 10° 18:35:27 10° 142° (SE) 2,298 5.2 -6.3°
Maximum altitude 18:40:17 47° 70° (ENE) 1,017 3.3 -7.2°
Drops below altitude 10° 18:45:08 10° 358° (N) 2,312 5.4 -8.0°
Sets 18:47:31 0° 353° (N) 3,243 6.2 -8.4°
